Starlink 2001

operational
NORAD ID: 47596 Int'l Des: 2021-009 Owner: SPXS Country: US Constellation: starlink
LEOCIRCULARSTARLINK_TYPE

Über Starlink 2001

Beschreibung wird geladen...

Live-Position

3D-Globus wird geladen...

Nächste Überflüge

Höhenverlauf

Altitude vs Time

uPlot chart will show altitude changes over time

Zweizeiliger Elementsatz

1 47596U 21009BA 25308.10701900 .00013272 00000-0 90749-3 0 9996
2 47596 53.0545 245.3792 0001508 92.2327 267.8835 15.06429425261585
Epoch: 4. Nov. 2025 • Age: 9 hours

Aktueller Status

Höhe 556.2 km
Geschwindigkeit 7.58 km/s
Subsatellitenpunkt -28.58°S, 128.52°W
Startdatum 4. Feb. 2021
Alter 4.7 years
Typ internet

Technische Details

Klassifizierung Payload
Masse 260.00 kg
Trockenmasse 248.00 kg
Gesamtmasse 260.00 kg
Länge 0.20 m
Durchmesser 2.80 m
Spannweite 9.00 m
Form Box + pan
Hersteller SPXS
Bus-Typ Starlink
Phasenstatus In Orbit
Besitzer/Staat SPXS/US

Große Konstellationen

Loading constellations...